McGrath, AK

1:29 AM AKDT on March 30, 2017 (GMT -0800)
McGrath

Weather History for PAMC - October, 2013

Change the Weather History Date:

Monday, October 28, 2013

  Actual Average Record
Temperature  
Mean Temperature 40 °F 16 °F  
Max Temperature - 23 °F 44 °F (2013)
Min Temperature 36 °F 9 °F -19 °F (2008)
Degree Days  
Heating Degree Days 25 49  
Month to date heating degree days 712 1087  
Since 1 July heating degree days 1804 2190  
Cooling Degree Days 0 0  
Month to date cooling degree days 0 0  
Year to date cooling degree days 78 20  
Moisture  
Dew Point 36 °F    
Average Humidity 0    
Maximum Humidity 0    
Minimum Humidity 0    
Precipitation  
Precipitation 0.60 in 0.03 in 1.20 in (1945)
Month to date precipitation 4.62 1.32  
Year to date precipitation 18.00 15.18  
Snow  
Snow 0.00 in 0.50 in 6.50 in (1982)
Month to date snowfall T 8.7  
Since 1 July snowfall 0.7 10.2  
Since 1 September snowfall 0.7 10.2  
Snow Depth 0.00 in    
Sea Level Pressure  
Sea Level Pressure 29.20 in    
Wind  
Wind Speed 8 mph (South)    
Max Wind Speed 21 mph    
Max Gust Speed 29 mph    
Visibility 8 miles    
Events Rain    
T = Trace of Precipitation, MM = Missing Value Source: NWS Daily Summary

Daily Weather History Graph

Daily Weather History Graph

Search for Another Location

Airport or City:

Trip Planner

Search our weather history database for the weather conditions in past years. The results will help you decide how hot, cold, wet, or windy it might be!

Date:

Astronomy

Oct. 28, 2013 Rise Set
Actual Time 9:48 AM AKDT 6:22 PM AKDT
Civil Twilight 8:58 AM AKDT 7:12 PM AKDT
Nautical Twilight 8:04 AM AKDT 8:06 PM AKDT
Astronomical Twilight 7:11 AM AKDT 8:59 PM AKDT
Moon 2:04 AM AKDT (10/28) 4:46 PM AKDT (10/28)
Length of Visible Light 10h 13m
Length of Day
8h 34m
Waning Crescent, 33% of the Moon is Illuminated
Oct 28
Waning Crescent
Nov 3
New
Nov 9
First Quarter
Nov 17
Full
Nov 25
Last Quarter

Hourly Weather History & Observations

Time (AKDT) Temp. Windchill Dew Point Humidity Pressure Visibility Wind Dir Wind Speed Gust Speed Precip Events Conditions
12:53 AM 37.9 °F 32.7 °F 34.0 °F 86% 29.42 in 10.0 mi East 6.9 mph - 0.00 in Rain Light Rain
1:53 AM 37.0 °F 34.5 °F 34.0 °F 89% 29.38 in 7.0 mi ENE 3.5 mph - 0.04 in Rain Light Rain
2:13 AM 37.4 °F - 35.6 °F 93% 29.35 in 7.0 mi Calm Calm - 0.02 in Rain Rain
2:53 AM 37.0 °F - 35.1 °F 93% 29.33 in 8.0 mi Calm Calm - 0.07 in Rain Light Rain
3:01 AM 37.4 °F - 35.6 °F 93% 29.30 in 9.0 mi Calm Calm - 0.01 in Rain Light Rain
3:53 AM 37.9 °F - 35.1 °F 89% 29.29 in 7.0 mi Calm Calm - 0.08 in Rain Light Rain
4:53 AM 37.9 °F 35.5 °F 36.0 °F 93% 29.25 in 6.0 mi NNE 3.5 mph - 0.06 in Rain Rain
5:53 AM 37.9 °F - 36.0 °F 93% 29.22 in 7.0 mi Calm Calm - 0.09 in Rain Light Rain
6:08 AM 39.2 °F - 35.6 °F 87% 29.20 in 8.0 mi Calm Calm - 0.01 in Rain Light Rain
6:53 AM 37.9 °F - 37.0 °F 97% 29.21 in 7.0 mi Calm Calm - 0.05 in Rain Light Rain
7:53 AM 37.9 °F - 37.0 °F 97% 29.18 in 6.0 mi Calm Calm - 0.06 in Rain Rain
8:19 AM 37.4 °F 34.9 °F 37.4 °F 100% 29.17 in 5.0 mi SE 3.5 mph - 0.03 in Rain Rain
8:53 AM 39.0 °F 36.8 °F 37.0 °F 93% 29.18 in 5.0 mi SSE 3.5 mph - 0.07 in Rain Light Rain
9:04 AM 37.4 °F - 37.4 °F 100% 29.16 in 4.0 mi Calm Calm - 0.01 in Rain Rain
9:53 AM 39.0 °F 34.8 °F 37.0 °F 93% 29.16 in 7.0 mi ESE 5.8 mph - 0.06 in Rain Light Rain
10:43 AM 39.2 °F 35.9 °F 37.4 °F 93% 29.13 in 10.0 mi ESE 4.6 mph - 0.00 in Rain Light Rain
10:53 AM 39.9 °F 36.7 °F 37.9 °F 93% 29.15 in 10.0 mi ESE 4.6 mph - 0.00 in   Overcast
11:17 AM 39.2 °F 35.9 °F 39.2 °F 100% 29.13 in 10.0 mi SSE 4.6 mph - N/A   Overcast
12:43 PM 44.6 °F 40.7 °F 39.2 °F 81% 29.11 in 10.0 mi South 6.9 mph - N/A   Overcast
12:53 PM 44.1 °F 38.1 °F 39.9 °F 85% 29.13 in 8.0 mi South 11.5 mph - N/A   Overcast
1:53 PM 44.1 °F 40.1 °F 39.9 °F 85% 29.13 in 10.0 mi Variable 6.9 mph - N/A   Overcast
2:53 PM 43.0 °F 38.8 °F 39.0 °F 86% 29.13 in 10.0 mi South 6.9 mph - N/A   Overcast
3:00 PM 42.8 °F 38.0 °F 39.2 °F 87% 29.12 in 8.0 mi SSW 8.1 mph - N/A   Overcast
3:53 PM 43.0 °F 36.8 °F 37.0 °F 80% 29.14 in 10.0 mi SSW 11.5 mph 23.0 mph N/A   Overcast
4:53 PM 42.1 °F 35.7 °F 37.0 °F 82% 29.14 in 10.0 mi South 11.5 mph 17.3 mph N/A   Overcast
5:53 PM 42.1 °F 34.5 °F 36.0 °F 79% 29.15 in 10.0 mi SSW 15.0 mph 24.2 mph N/A   Overcast
6:43 PM 41.0 °F 34.3 °F 35.6 °F 81% 29.13 in 10.0 mi SSW 11.5 mph - N/A   Overcast
6:53 PM 41.0 °F 33.9 °F 35.1 °F 79% 29.15 in 10.0 mi South 12.7 mph 21.9 mph N/A   Overcast
7:18 PM 39.2 °F 32.5 °F 35.6 °F 87% 29.14 in 10.0 mi South 10.4 mph 21.9 mph N/A   Overcast
7:38 PM 39.2 °F 31.6 °F 35.6 °F 87% 29.14 in 10.0 mi SSW 12.7 mph - N/A   Overcast
7:53 PM 39.9 °F 31.8 °F 35.1 °F 83% 29.17 in 10.0 mi SSW 15.0 mph 24.2 mph N/A   Overcast
8:53 PM 37.9 °F 32.1 °F 33.1 °F 83% 29.20 in 10.0 mi SSW 8.1 mph - 0.00 in   Overcast
9:06 PM 37.4 °F 30.3 °F 33.8 °F 87% 29.19 in 10.0 mi SSW 10.4 mph - N/A   Overcast
9:19 PM 37.4 °F 28.5 °F 33.8 °F 87% 29.19 in 9.0 mi SSW 15.0 mph - 0.00 in Rain Light Rain
9:27 PM 37.4 °F 30.3 °F 33.8 °F 87% 29.19 in 6.0 mi SSW 10.4 mph 19.6 mph 0.00 in Rain Light Rain
9:53 PM 36.0 °F 29.0 °F 33.1 °F 89% 29.22 in 7.0 mi SSW 9.2 mph - 0.01 in Rain Light Rain
10:53 PM 36.0 °F 28.0 °F 32.0 °F 86% 29.25 in 10.0 mi SSW 11.5 mph - 0.01 in Rain Light Rain
11:53 PM 36.0 °F 26.0 °F 32.0 °F 86% 29.27 in 10.0 mi SSW 17.3 mph 24.2 mph 0.00 in Rain Light Rain